Cambridge, MN

9:02 AM CDT on July 24, 2017 (GMT -0500)
Cambridge Municipal

Weather History for KCBG - August, 2014

Change the Weather History Date:

Sunday, August 17, 2014

  Actual Average Record
Temperature  
Mean Temperature 66 °F -  
Max Temperature 71 °F 79 °F 94 °F (1955)
Min Temperature 62 °F 56 °F 41 °F (1963)
Cooling Degree Days 2    
Growing Degree Days 16 (Base 50)    
Moisture  
Dew Point 59 °F    
Average Humidity 73    
Maximum Humidity 78    
Minimum Humidity 68    
Precipitation  
Precipitation 0.94 in - - ()
Sea Level Pressure  
Sea Level Pressure 29.93 in    
Wind  
Wind Speed 5 mph (ENE)    
Max Wind Speed 9 mph    
Max Gust Speed -    
Visibility 7 miles    
Events Rain , Thunderstorm    
Averages and records for this station are not official NWS values.
T = Trace of Precipitation, MM = Missing Value Source: NWS Daily Summary

Daily Weather History Graph

Daily Weather History Graph

Search for Another Location

Airport or City:

Trip Planner

Search our weather history database for the weather conditions in past years. The results will help you decide how hot, cold, wet, or windy it might be!

Date:

Astronomy

Aug. 17, 2014 Rise Set
Actual Time 6:16 AM CDT 8:17 PM CDT
Civil Twilight 5:43 AM CDT 8:49 PM CDT
Nautical Twilight 5:04 AM CDT 9:28 PM CDT
Astronomical Twilight 4:20 AM CDT 10:11 PM CDT
Moon No Moon Rise 2:26 PM CDT (8/17)
Length of Visible Light 15h 05m
Length of Day
14h 01m
Waning Gibbous, 48% of the Moon is Illuminated
Aug 17
Waning Gibbous
Aug 25
New
Sep 2
First Quarter
Sep 8
Full
Sep 15
Last Quarter

Hourly Weather History & Observations

Time (CDT) Temp. Dew Point Humidity Pressure Visibility Wind Dir Wind Speed Gust Speed Precip Events Conditions
12:15 AM 71.6 °F 60.8 °F 69% 29.93 in 10.0 mi ENE 5.8 mph - N/A   Scattered Clouds
12:35 AM 71.6 °F 60.8 °F 69% 29.93 in 10.0 mi ENE 5.8 mph - N/A   Clear
12:56 AM 71.6 °F 60.8 °F 69% 29.94 in 10.0 mi ENE 4.6 mph - N/A   Scattered Clouds
1:15 AM 69.8 °F 60.8 °F 73% 29.94 in 10.0 mi ENE 4.6 mph - N/A   Clear
1:35 AM 69.8 °F 60.8 °F 73% 29.95 in 10.0 mi NE 4.6 mph - N/A   Scattered Clouds
1:56 AM 69.8 °F 59.0 °F 68% 29.95 in 10.0 mi ENE 3.5 mph - N/A   Clear
2:15 AM 69.8 °F 59.0 °F 68% 29.95 in 10.0 mi NE 9.2 mph - N/A   Scattered Clouds
2:35 AM 68.0 °F 57.2 °F 68% 29.94 in 10.0 mi NE 6.9 mph - N/A   Scattered Clouds
2:56 AM 68.0 °F 57.2 °F 68% 29.95 in 10.0 mi ENE 3.5 mph - N/A   Clear
3:15 AM 68.0 °F 57.2 °F 68% 29.95 in 10.0 mi NE 4.6 mph - N/A   Clear
3:35 AM 66.2 °F 57.2 °F 73% 29.94 in 10.0 mi NE 8.1 mph - N/A   Clear
3:56 AM 66.2 °F 57.2 °F 73% 29.95 in 10.0 mi ENE 5.8 mph - N/A   Scattered Clouds
4:15 AM 66.2 °F 57.2 °F 73% 29.95 in 10.0 mi ENE 4.6 mph - N/A   Scattered Clouds
4:35 AM 66.2 °F 57.2 °F 73% 29.95 in 10.0 mi NE 4.6 mph - N/A   Scattered Clouds
4:56 AM 66.2 °F 57.2 °F 73% 29.94 in 10.0 mi NE 5.8 mph - N/A Rain Light Rain
5:15 AM 66.2 °F 57.2 °F 73% 29.95 in 10.0 mi NE 4.6 mph - N/A   Light Drizzle
5:35 AM 66.2 °F 55.4 °F 68% 29.96 in 10.0 mi NE 5.8 mph - N/A   Light Drizzle
5:56 AM 66.2 °F 55.4 °F 68% 29.96 in 10.0 mi ENE 5.8 mph - N/A   Light Drizzle
6:15 AM 64.4 °F 55.4 °F 73% 29.96 in 10.0 mi ENE 5.8 mph - N/A   Mostly Cloudy
6:36 AM 64.4 °F 55.4 °F 73% 29.96 in 10.0 mi NE 6.9 mph - N/A   Overcast
6:55 AM 64.4 °F 55.4 °F 73% 29.96 in 10.0 mi ENE 6.9 mph - N/A   Overcast
7:15 AM 64.4 °F 55.4 °F 73% 29.96 in 10.0 mi ENE 4.6 mph - N/A   Overcast
7:35 AM 64.4 °F 55.4 °F 73% 29.96 in 10.0 mi NE 5.8 mph - N/A   Overcast
7:55 AM 64.4 °F 55.4 °F 73% 29.97 in 10.0 mi NE 5.8 mph - N/A   Overcast
8:16 AM 64.4 °F 53.6 °F 68% 29.97 in 10.0 mi NE 4.6 mph - N/A   Overcast
8:35 AM 64.4 °F 55.4 °F 73% 29.98 in 10.0 mi NE 5.8 mph - N/A   Overcast
8:55 AM 62.6 °F 53.6 °F 72% 29.98 in 7.0 mi ENE 4.6 mph - N/A Rain Light Rain
9:16 AM 62.6 °F 55.4 °F 77% 29.98 in 3.0 mi NNE 4.6 mph - N/A   Light Drizzle
9:35 AM 62.6 °F 55.4 °F 77% 29.98 in 2.0 mi ENE 5.8 mph - N/A Thunderstorm Haze
9:55 AM 62.6 °F 55.4 °F 77% 29.98 in 3.0 mi ENE 5.8 mph - N/A   Haze
10:16 AM 62.6 °F 55.4 °F 77% 29.99 in 5.0 mi NE 3.5 mph - N/A   Haze
10:35 AM 64.4 °F 55.4 °F 73% 29.99 in 5.0 mi ENE 5.8 mph - N/A   Haze
10:56 AM 64.4 °F 55.4 °F 73% 29.98 in 4.0 mi East 5.8 mph - N/A   Haze
11:15 AM 66.2 °F 57.2 °F 73% 29.97 in 7.0 mi ENE 4.6 mph - N/A   Overcast
11:35 AM 68.0 °F 57.2 °F 68% 29.96 in 10.0 mi East 8.1 mph - N/A Thunderstorm Overcast
11:55 AM 69.8 °F 59.0 °F 68% 29.96 in 10.0 mi East 8.1 mph - N/A   Mostly Cloudy
12:15 PM 69.8 °F 59.0 °F 68% 29.96 in 10.0 mi East 3.5 mph - N/A   Overcast
12:36 PM 69.8 °F 59.0 °F 68% 29.96 in 7.0 mi ENE 6.9 mph - N/A   Overcast
12:55 PM 69.8 °F 60.8 °F 73% 29.95 in 7.0 mi East 5.8 mph - N/A   Overcast
1:15 PM 69.8 °F 60.8 °F 73% 29.95 in 7.0 mi Calm Calm - N/A   Overcast
1:36 PM 69.8 °F 60.8 °F 73% 29.95 in 7.0 mi Calm Calm - N/A Rain , Thunderstorm Thunderstorms and Rain
1:56 PM 69.8 °F 60.8 °F 73% 29.95 in 2.0 mi Calm Calm - 0.01 in Rain Heavy Rain
2:15 PM 68.0 °F 60.8 °F 78% 29.95 in 0.2 mi NNE 3.5 mph - 0.49 in Rain Heavy Rain
2:35 PM 68.0 °F 60.8 °F 78% 29.94 in 1.5 mi East 8.1 mph - 0.93 in Rain , Thunderstorm Heavy Thunderstorms and Rain
2:56 PM 69.8 °F 60.8 °F 73% 29.95 in 4.0 mi Calm Calm - N/A Rain Light Rain
3:15 PM 69.8 °F 62.6 °F 78% 29.93 in 5.0 mi ENE 4.6 mph - N/A   Haze
3:35 PM 69.8 °F 62.6 °F 78% 29.92 in 7.0 mi East 3.5 mph - N/A   Overcast
3:55 PM 69.8 °F 62.6 °F 78% 29.92 in 10.0 mi ENE 4.6 mph - N/A   Mostly Cloudy
4:15 PM 69.8 °F 62.6 °F 78% 29.92 in 10.0 mi ENE 3.5 mph - N/A   Overcast
4:36 PM 69.8 °F 62.6 °F 78% 29.92 in 10.0 mi ENE 4.6 mph - N/A   Mostly Cloudy
5:15 PM 69.8 °F 60.8 °F 73% 29.92 in 5.0 mi NE 3.5 mph - N/A   Haze
5:35 PM 69.8 °F 60.8 °F 73% 29.92 in 4.0 mi NNE 5.8 mph - N/A   Haze
5:54 PM 68.0 °F 60.8 °F 78% 29.91 in 4.0 mi NNE 5.8 mph - N/A   Haze
6:15 PM 68.0 °F 60.8 °F 78% 29.90 in 3.0 mi ENE 3.5 mph - N/A   Haze
6:36 PM 68.0 °F 60.8 °F 78% 29.88 in 4.0 mi NE 4.6 mph - N/A   Haze
6:54 PM 68.0 °F 60.8 °F 78% 29.88 in 4.0 mi ENE 3.5 mph - N/A   Haze
7:15 PM 69.8 °F 60.8 °F 73% 29.88 in 4.0 mi ENE 3.5 mph - N/A   Haze
7:35 PM 69.8 °F 60.8 °F 73% 29.87 in 5.0 mi East 5.8 mph - N/A   Haze
7:55 PM 69.8 °F 60.8 °F 73% 29.88 in 5.0 mi ENE 4.6 mph - N/A   Haze
8:16 PM 69.8 °F 60.8 °F 73% 29.87 in 5.0 mi Calm Calm - N/A   Haze
8:35 PM 69.8 °F 60.8 °F 73% 29.87 in 7.0 mi ENE 3.5 mph - N/A   Clear
8:54 PM 69.8 °F 60.8 °F 73% 29.87 in 7.0 mi Calm Calm - N/A   Clear
9:15 PM 69.8 °F 60.8 °F 73% 29.88 in 7.0 mi Calm Calm - N/A   Scattered Clouds
9:35 PM 68.0 °F 60.8 °F 78% 29.87 in 7.0 mi Calm Calm - N/A   Mostly Cloudy
9:55 PM 69.8 °F 60.8 °F 73% 29.86 in 7.0 mi NE 3.5 mph - N/A   Scattered Clouds
10:13 PM 68.0 °F 60.8 °F 78% 29.87 in 7.0 mi Calm Calm - N/A   Scattered Clouds
10:35 PM 68.0 °F 60.8 °F 78% 29.87 in 7.0 mi Calm Calm - N/A   Clear
10:55 PM 68.0 °F 60.8 °F 78% 29.86 in 5.0 mi NE 3.5 mph - N/A   Haze
11:16 PM 68.0 °F 60.8 °F 78% 29.85 in 5.0 mi Calm Calm - N/A   Haze
11:35 PM 68.0 °F 60.8 °F 78% 29.85 in 5.0 mi NE 3.5 mph - N/A   Haze
11:55 PM 68.0 °F 60.8 °F 78% 29.85 in 5.0 mi Calm Calm - N/A   Haze